CAPE
146 396 956 1186 818 573 63 48 66 46 13 90 161 87 26 126 87 2 54 310 230 104 175 100 256 281 320 285 551 513 353 405 804 1518 1722 1873 1786 1755 1745 1729 1656 1373 1466 1473 1417 1376 1546 1338 954
551 1134 938 1235 340 20 47 27 32 51 33 158 311 63 41 12 34 54 158 149 54 113 68 96 197 263 370 414 433 755 498 520 1137 1613 1797 1507 1716 1630 1613 1378 1156 1219 1513 1729 1514 1254 1159 1532 988
665 1181 1412 934 53 41 38 12 27 4 112 229 391 115 0 13 36 54 97 132 171 181 80 145 143 221 174 548 723 944 514 625 1665 1938 1738 1588 1751 1750 1706 1465 1307 1446 1764 1729 1561 1326 988 463 183
1434 1362 1617 302 18 56 47 24 0 47 69 154 186 56 85 47 27 17 151 205 310 214 161 309 196 300 458 381 84 25 586 1379 1598 1805 1832 1950 1871 1934 1712 1490 1663 1798 1973 2056 1637 1358 1011 563 40
1158 643 670 34 28 34 24 34 4 26 46 177 92 58 115 30 5 58 121 304 283 194 183 245 284 179 159 131 39 475 239 1317 1606 1699 1961 2062 1914 1412 1466 1626 1636 1629 1845 2012 1809 1582 1316 761 1
218 136 227 34 28 59 29 23 25 49 18 152 191 110 124 11 21 29 117 219 128 326 162 121 123 96 117 50 126 405 704 1391 1554 1692 1655 1737 1649 1084 1020 1268 1476 1577 1489 1509 1781 1605 1396 667 1
78 126 88 19 27 1 3 10 14 25 39 53 112 48 23 43 25 124 160 112 174 137 144 175 101 244 59 226 113 35 599 1211 1628 1709 1825 1797 1216 593 814 1193 1467 1298 1194 1208 1104 1393 1304 310 7
325 262 63 69 8 9 1 0 19 16 0 50 32 0 9 23 44 51 86 82 22 58 320 238 301 321 347 400 166 48 1133 1181 1493 1418 1786 882 823 489 418 661 1118 916 826 893 1134 1107 1197 975 327
0 174 325 64 1 1 22 0 0 0 1 7 0 0 29 50 50 154 127 43 30 250 380 335 110 429 494 867 892 721 835 1283 1419 1491 1245 977 1422 1597 1582 854 688 718 848 1044 1199 1246 1208 1188 1271
0 243 169 9 0 2 28 0 0 0 0 14 0 15 0 42 45 56 32 26 36 26 117 558 985 662 616 304 775 873 1329 1296 1215 1371 1498 1541 1275 716 464 386 470 784 979 953 1248 1474 1304 1342 1739
130 517 419 123 0 15 26 8 14 21 14 1 0 0 3 31 56 47 47 49 44 10 47 532 622 821 500 306 988 1110 973 1508 1763 1800 1233 1304 706 286 105 165 1005 1179 1227 1601 1588 1547 1587 1490 1574
582 572 325 520 314 262 67 26 0 0 0 0 0 0 0 8 45 57 48 44 59 30 48 464 534 743 784 629 917 666 1047 1840 1303 1620 1368 1232 1343 1339 1056 611 704 1066 1074 1493 1416 1385 1527 1012 930
499 514 480 502 695 446 459 357 10 0 0 0 0 0 0 4 21 18 47 49 56 47 259 319 359 440 740 899 840 1017 761 1372 1358 985 1493 1105 1032 896 987 400 902 838 955 1517 1312 1591 1414 1583 1088
668 600 694 744 711 238 155 621 239 0 0 0 0 0 0 2 9 3 10 43 49 70 241 313 490 414 561 765 625 673 771 1037 972 1057 695 1215 977 719 728 673 494 606 1406 1388 1418 1560 1735 1650 1140
652 675 412 785 637 516 561 542 445 15 0 0 0 0 0 0 2 0 0 3 26 39 202 232 148 254 409 547 634 807 622 780 524 1041 783 997 1061 1034 1435 977 316 1011 547 1500 1695 1495 1751 1562 889
803 212 242 329 620 259 49 422 579 131 8 0 0 0 0 0 0 0 0 1 12 10 124 131 73 126 304 802 396 631 572 471 426 1020 923 1180 1437 868 1563 483 610 759 763 1139 1011 1094 1489 1062 1358
159 101 411 434 450 602 482 318 574 288 131 11 0 0 1 3 0 0 0 0 0 4 46 72 176 123 264 535 433 885 514 481 217 360 793 1013 1146 1103 1551 1221 1322 379 1037 780 924 2039 1123 1350 1257
1 29 0 191 1 0 52 306 553 521 362 133 28 0 0 0 0 0 0 0 0 9 39 221 91 241 271 295 765 360 558 262 445 216 896 853 1036 1186 1328 1879 1293 381 884 1241 1673 1626 1342 1344 1770
0 5 2 0 0 0 0 0 216 429 447 435 201 39 0 0 0 0 0 0 0 0 26 58 34 549 242 600 363 469 378 234 236 247 1063 1065 936 931 1178 1479 707 401 896 1418 1638 1487 2254 1450 1430
0 0 12 0 0 0 0 0 21 276 361 368 467 227 47 2 3 0 0 0 0 0 13 52 214 482 419 530 294 235 156 329 301 320 825 1072 803 1005 986 1091 1428 599 690 754 1269 1799 1710 2160 1590
0 0 0 0 0 0 0 0 0 351 307 368 419 452 278 21 4 1 0 0 0 0 0 135 342 527 355 298 351 399 395 528 634 616 518 641 932 1046 800 906 1076 1625 725 1183 1419 1559 1407 1359 1701
0 0 0 0 0 0 0 5 17 189 347 275 365 416 393 294 27 16 10 10 35 0 0 218 571 936 451 493 419 646 405 342 540 798 773 832 921 1056 1018 1132 926 1140 1624 445 1270 1846 1780 1877 1041
0 0 0 0 0 0 0 0 0 160 403 405 300 401 389 336 250 52 44 77 34 46 116 226 555 1097 1139 569 878 932 655 668 802 332 539 973 893 1107 876 873 1856 1037 863 729 1450 1697 1719 2160 1705
0 0 0 0 0 0 0 0 0 67 180 380 291 235 154 60 227 342 156 173 168 71 144 415 667 713 1202 1285 654 1264 638 889 747 811 1022 659 1297 1023 976 978 1050 1497 1710 791 896 1924 1439 1754 1359
0 0 0 0 0 0 0 0 20 70 38 34 143 174 50 1 102 192 296 310 290 277 160 369 1002 944 1114 1768 1365 1000 1505 660 1098 1423 597 997 824 1189 981 863 1375 1120 1859 981 1316 954 2025 1919 1516
0 0 0 0 0 0 0 0 85 2 1 0 0 0 0 0 0 0 42 194 377 470 386 298 1022 1141 1345 1095 1892 1531 1412 1889 1480 1457 1164 700 886 710 1141 821 915 1545 1698 1424 1132 2234 1924 1870 1693
0 0 0 0 0 0 0 39 35 9 0 0 0 0 0 0 0 0 0 0 0 10 100 556 645 1385 1360 1400 1349 1851 1718 1675 1506 1264 1848 1431 688 968 1091 932 610 1817 1565 2199 1197 1293 1905 1556 1833
0 0 0 0 0 0 0 0 44 22 4 0 0 0 0 0 0 0 0 0 0 0 0 281 761 1374 1747 1580 1557 1692 2056 1972 1749 1650 1133 1509 1343 587 923 1209 1009 1192 1801 1263 1993 1906 1469 1436 1901
0 0 0 0 0 0 0 33 77 71 0 0 0 0 0 0 0 0 0 0 0 4 7 89 1384 1537 1797 1836 1829 1876 1955 2256 2244 1722 1905 1616 1398 1645 660 1950 1554 1354 1467 1727 1325 1353 1504 1197 1683
0 0 0 0 0 0 0 0 26 1 0 0 0 0 0 0 0 0 0 0 0 8 41 188 876 1661 1636 1825 1706 1984 2079 2142 2374 2320 1672 2323 1964 2066 2188 1169 1683 1593 1568 1464 1540 1496 1518 1235 1353
CIN
-339 -205 -76 -30 -17 -31 -5 -3 -26 -4 -19 -27 -9 -50 -55 -30 -17 -2 -36 -22 -34 -50 -28 -21 -5 -13 -13 -13 -5 -13 -15 -14 -11 -2 -1 0 -1 -2 0 0 0 -2 0 0 0 0 0 0 -7
-201 -146 -131 -20 -29 -14 -1 -7 -4 -6 -8 -8 -10 -34 -35 -81 -54 -15 -9 -27 -12 -21 -12 -12 -16 -15 -13 -13 -12 -9 -14 -16 -4 0 -1 -2 0 0 0 -2 -6 -5 0 0 0 0 0 0 -13
-203 -19 -44 -53 -9 -8 -3 -2 -3 -3 -5 -4 -18 -19 0 -46 -6 -10 -17 -14 -39 -28 -28 -21 -11 -21 -20 -4 -2 -1 -9 -13 0 0 0 -1 0 0 0 -2 -5 -4 0 0 0 0 -1 -56 -116
-61 -10 -2 -13 -12 -5 -3 -3 -1 -2 -13 -15 -42 -12 -2 -11 -17 -6 -5 -42 -13 -8 -28 -6 -8 -2 -1 0 -45 -72 -6 -1 -1 0 0 0 0 0 0 -5 -3 -3 0 0 0 0 -5 -62 -218
-19 -73 -38 -4 -2 -3 -3 -6 -32 -6 -3 -23 -25 -14 -25 -13 -4 -3 -3 -28 -24 -3 -22 -3 -3 -4 -5 -9 -58 -15 -35 -2 0 0 0 0 0 -5 -11 -11 -11 -15 -7 -3 -1 -1 -12 -59 -87
-45 -184 -32 -2 -2 -3 -4 -2 -5 -3 -6 -6 -20 -16 -16 -1 -2 -3 -12 -55 -10 -11 -19 -11 -19 -21 -14 -20 -26 -16 -9 0 0 0 -3 -4 -10 -26 -36 -27 -23 -21 -24 -22 -13 -21 -30 -114 -64
-76 -87 -5 -2 -2 -1 -3 -7 -3 -3 -2 -41 -47 -80 -3 -1 -2 -17 -33 -23 -10 -20 -15 -5 -15 -13 -33 -20 -38 -87 -26 -4 -5 -8 -11 -8 -33 -62 -48 -37 -35 -38 -45 -53 -65 -56 -69 -190 -298
-10 -54 -17 -15 -1 -1 -2 -1 -5 -4 0 -5 -89 0 -1 -2 -9 -5 -19 -18 -13 -10 -9 -8 -18 -20 -27 -12 -36 -114 -16 -26 -18 -26 -15 -43 -49 -71 -73 -49 -51 -56 -67 -79 -94 -93 -101 -111 -173
0 -36 -12 -21 -1 -1 -3 0 0 0 -1 -2 0 0 -28 -3 -4 -19 -4 -5 -8 -7 -21 -20 -40 -24 -16 -18 -27 -29 -31 -22 -28 -23 -27 -22 -7 -14 -28 -46 -61 -66 -82 -85 -93 -98 -96 -108 -117
0 -61 -16 -3 0 -2 -3 0 0 0 0 -2 0 -4 0 -2 -2 -2 -2 -4 -3 -1 -15 -27 -8 -3 -14 -21 -36 -32 -22 -28 -30 -8 -26 -18 -25 -15 -29 -51 -62 -67 -73 -80 -71 -93 -92 -111 -75
-196 -6 -3 -8 0 -3 -3 -4 -29 -14 -5 -2 0 0 -2 -3 -2 -2 -1 -1 -3 -4 -66 -13 -27 -5 -2 -25 -25 -10 -33 -14 -12 -4 -11 -19 -19 -34 -31 -49 -39 -44 -49 -41 -22 -6 -38 -52 -36
-3 -2 -10 -2 -8 -3 -9 -2 -1 0 0 0 0 0 0 -3 -2 -2 -1 -3 -1 -2 -81 -23 -25 -7 -2 -13 -8 -6 -17 -5 -22 -7 -3 -11 -5 -6 -17 -19 -12 -10 -14 -4 -5 -13 -8 -16 -32
-8 -2 -3 -1 -10 -35 -11 -4 -3 0 0 0 0 0 0 -2 -3 -3 -2 -3 -3 -66 -12 -23 -42 -23 -11 -6 -8 -11 -15 -15 -17 -19 -11 -11 -12 -12 -2 -19 -9 -10 -8 -3 -13 -16 -18 -9 -21
-8 -3 -10 -8 -2 -50 -44 -8 -5 0 0 0 0 0 0 -1 -3 -3 -4 -3 -4 -86 -24 -12 -7 -18 -10 -11 -16 -12 -10 -15 -18 -9 -17 -6 -4 -8 -12 -18 -34 -28 -9 -10 -18 -34 -30 -16 -14
-31 -4 -34 -13 -24 -20 -26 -18 -12 -66 0 0 0 0 0 0 -2 0 -1 -3 -1 -84 -50 -21 -36 -19 -7 -25 -13 -10 -8 -4 -4 -23 -25 -15 -9 -10 -4 -4 -77 -12 -56 -12 -19 -29 -26 -16 -13
-16 -83 -88 -47 -22 -90 -85 -31 -46 -26 -28 0 0 0 -1 -1 -1 0 0 -3 -12 -51 -45 -46 -89 -58 -21 -2 -17 -16 -10 -3 -6 -10 -27 -9 -3 -27 -9 -31 -31 -27 -40 -11 -11 -12 -6 -12 -13
-70 -39 -9 -28 -8 -19 -34 -36 -4 -16 -30 -49 0 -1 -2 -3 0 0 0 0 -1 -17 -39 -50 -40 -76 -28 -4 -12 -4 -10 -11 -65 -39 -25 -26 -15 -19 -19 -9 -9 -68 -22 -35 -27 -16 -17 -13 -30
-11 -4 0 -17 -2 0 -102 -9 -2 -2 -3 -27 -114 0 0 0 0 0 0 0 0 -6 -33 -4 -46 -23 -26 -26 -2 -17 -17 -42 -14 -95 -9 -25 -22 -23 -32 -13 -16 -65 -31 -6 -8 -17 -35 -39 -27
-1 -2 -5 0 0 0 0 0 -11 -19 -12 -2 -33 -156 0 0 0 0 0 0 0 0 -67 -21 -53 -7 -24 -4 -30 -16 -30 -46 -64 -82 -29 -19 -12 -27 -22 -28 -22 -59 -43 -25 -11 -22 -17 -26 -39
0 -1 -2 0 0 0 0 0 -3 -23 -28 -2 -3 -28 -162 -301 -333 0 0 0 0 0 -55 -78 -23 -7 -5 -3 -32 -58 -106 -39 -31 -50 -11 -15 -13 -18 -27 -34 -9 -38 -31 -49 -17 -19 -25 -11 -11
0 0 0 0 0 0 0 0 0 -15 -17 -8 -3 -5 -9 -171 -288 -235 0 0 0 0 0 -99 -46 -27 -38 -31 -18 -17 -33 -32 -25 -11 -40 -26 -21 -13 -41 -22 -22 -14 -46 -19 -16 -16 -33 -22 -12
0 0 0 0 0 0 0 -5 -93 -20 -6 -4 -9 -10 -33 -28 -184 -216 -185 -289 -198 0 0 -92 -22 -10 -51 -32 -41 -15 -38 -49 -34 -8 -21 -31 -22 -18 -20 -20 -22 -17 -7 -81 -22 -8 -6 -15 -31
0 0 0 0 0 0 0 0 0 -37 -8 -11 -14 -17 -14 -17 -29 -103 -158 -121 -166 -179 -163 -121 -61 -2 -2 -32 -16 -12 -23 -19 -4 -47 -30 -23 -31 -17 -25 -21 -2 -22 -33 -33 -8 -5 -18 -6 -10
0 0 0 0 0 0 0 0 0 -6 -9 -21 -60 -128 -85 -355 -75 -10 -78 -95 -100 -120 -86 -83 -79 -54 -8 -6 -21 -10 -31 -8 -15 -17 -9 -42 -23 -33 -38 -36 -32 -8 -4 -34 -30 -6 -22 -11 -26
0 0 0 0 0 0 0 0 -9 -26 -29 -12 -54 -105 -131 -146 -36 -109 -107 -22 -78 -89 -94 -62 -73 -76 -53 -4 -12 -16 -4 -25 -15 -5 -30 -29 -29 -29 -59 -69 -21 -39 -4 -40 -15 -35 -4 -7 -21
0 0 0 0 0 0 0 0 -36 -5 -4 0 0 0 0 0 0 0 -32 -48 -7 -18 -64 -72 -41 -95 -69 -74 -15 -14 -14 -8 -11 -7 -4 -27 -37 -71 -63 -94 -74 -23 -8 -25 -33 -4 -5 -4 -6
0 0 0 0 0 0 0 -40 -66 -85 0 0 0 0 0 0 0 0 0 0 0 -133 -135 -19 -41 -79 -99 -91 -75 -32 -23 -10 -22 -18 -2 -9 -35 -16 -35 -89 -131 -19 -25 -2 -44 -26 -3 -3 -3
0 0 0 0 0 0 0 0 -10 -77 -60 0 0 0 0 0 0 0 0 0 0 0 0 -120 -9 -43 -95 -96 -95 -66 -33 -29 -19 -12 -24 -8 -4 -39 -14 -56 -84 -60 -28 -52 -3 -6 -16 -8 -3
0 0 0 0 0 0 0 -15 -78 -72 0 0 0 0 0 0 0 0 0 0 0 -183 -234 -234 -63 -38 -66 -92 -79 -63 -51 -12 -12 -16 -6 -11 -10 -8 -26 -13 -33 -52 -34 -25 -35 -29 -12 -17 -4
0 0 0 0 0 0 0 0 -56 -125 0 0 0 0 0 0 0 0 0 0 0 -262 -240 -269 -226 -100 -34 -111 -96 -64 -49 -27 0 -7 -20 -1 -5 -9 -7 -13 -9 -14 -22 -31 -21 -23 -20 -20 -10
Wind_Speed
18 17 15 15 19 20 34 34 9 24 9 13 20 8 6 4 5 8 33 25 34 29 27 20 18 20 23 23 18 11 12 5 4 6 13 8 7 8 6 8 12 12 10 19 27 28 29 30 29
17 16 16 15 20 32 30 30 30 26 27 18 16 17 12 14 19 21 20 30 23 27 7 10 10 10 16 25 7 8 7 2 4 9 9 5 7 6 4 5 8 18 23 30 31 30 26 22 26
14 14 15 21 27 27 30 31 30 29 25 20 13 16 16 21 19 21 30 24 19 14 12 0 2 6 2 18 18 7 3 4 6 8 10 4 5 4 5 3 13 17 30 29 27 25 22 23 23
14 14 15 26 30 30 31 30 29 27 26 27 21 6 17 21 25 30 31 27 23 16 13 12 12 16 18 18 20 11 8 1 5 5 11 3 5 5 5 6 7 5 17 24 25 20 20 22 24
15 17 18 33 33 32 30 27 27 29 23 23 25 22 12 22 27 28 26 26 22 18 17 16 20 23 19 16 18 15 2 4 13 16 6 5 5 7 6 7 15 15 11 14 25 23 23 23 24
18 17 21 31 32 28 18 23 26 22 26 28 24 26 24 24 28 30 23 24 24 21 20 21 21 24 23 18 16 16 3 4 17 12 11 9 6 9 7 15 18 17 18 19 22 24 23 23 25
23 21 26 29 32 29 13 27 17 26 28 29 28 26 28 28 29 23 20 29 26 23 22 24 26 24 26 25 24 23 3 16 19 14 13 12 10 13 15 21 20 18 19 21 22 23 24 25 27
20 15 29 21 30 30 28 7 3 18 18 26 24 26 27 29 27 26 28 32 27 27 26 25 24 33 30 31 36 36 20 22 20 17 16 19 20 23 25 25 21 19 20 21 22 23 23 24 25
6 9 18 19 29 28 28 28 25 26 26 18 21 28 31 32 30 27 29 23 22 24 28 32 32 34 33 33 34 30 27 22 22 18 19 21 14 22 25 21 21 21 20 18 20 22 22 22 22
8 17 25 26 28 26 24 27 27 25 25 24 25 26 27 28 29 27 25 26 25 25 28 29 30 33 32 32 33 31 28 24 22 21 18 20 17 24 25 24 24 21 18 15 14 18 21 22 22
21 20 23 24 26 26 26 21 26 17 24 23 24 24 27 25 25 24 25 25 24 23 24 22 23 30 29 25 31 29 27 24 19 15 17 21 21 23 27 24 21 18 17 15 17 9 24 24 24
20 21 24 23 24 24 20 21 19 23 22 23 25 25 25 24 23 22 22 23 24 24 21 21 20 14 11 28 29 28 27 27 18 18 15 17 20 22 23 25 20 16 14 10 7 15 13 25 19
17 20 21 22 22 9 12 7 22 22 23 25 27 26 25 24 22 21 19 22 21 20 19 16 14 19 24 28 20 14 16 7 5 18 19 21 20 17 16 19 17 14 13 10 8 15 16 16 19
18 19 17 19 17 21 15 15 17 21 22 23 25 25 25 24 22 20 19 18 17 18 14 11 12 14 21 8 18 18 16 9 18 9 22 19 16 21 14 22 20 18 9 10 13 16 15 14 24
15 19 18 14 16 15 13 15 19 20 20 21 22 23 23 23 22 20 19 18 16 18 12 11 8 7 5 10 23 25 20 18 17 6 14 20 14 20 22 21 21 17 15 19 18 18 17 17 22
14 16 14 15 15 17 20 19 20 20 21 21 21 20 20 20 21 20 19 17 16 17 11 12 13 12 4 12 29 27 26 15 16 7 12 22 21 25 22 22 22 15 20 20 18 17 11 15 13
11 16 14 15 14 15 8 14 18 20 22 21 20 20 18 18 18 19 20 19 18 12 7 10 12 13 10 4 24 29 16 21 16 14 3 21 23 25 24 23 12 19 21 19 17 12 16 15 16
12 17 14 13 12 11 14 12 15 19 20 17 17 17 17 16 16 16 19 20 16 11 5 2 11 9 7 6 16 25 9 23 23 21 0 11 17 27 26 21 12 22 22 20 17 16 17 18 17
19 19 16 12 14 13 17 14 9 11 13 15 15 13 14 16 15 14 17 18 18 15 12 10 9 4 7 2 2 5 6 18 27 20 1 4 8 23 27 24 13 24 24 13 18 20 21 19 18
23 23 23 12 13 11 14 22 3 8 9 11 11 12 13 12 13 14 14 16 16 16 13 12 10 7 8 4 5 7 2 3 26 22 5 1 10 10 29 29 26 19 26 7 17 22 22 21 17
23 25 27 22 15 12 18 14 20 5 6 7 6 9 11 13 13 12 13 14 13 14 14 13 12 11 10 12 5 3 7 25 26 18 7 8 2 26 22 30 28 22 19 2 10 17 22 22 20
21 20 22 22 26 27 24 22 10 1 3 2 1 6 10 10 10 12 12 12 12 12 13 12 12 11 11 18 9 4 12 28 26 26 11 4 3 10 30 30 30 23 22 21 7 7 4 10 22
19 24 22 24 26 28 25 22 21 1 9 4 3 2 2 11 10 11 10 11 11 10 10 11 11 10 11 13 16 7 4 18 23 28 31 6 4 7 22 22 21 14 24 26 22 13 14 16 12
24 28 25 19 19 26 21 19 22 9 14 2 7 7 17 20 15 10 10 10 8 10 7 9 10 10 8 8 16 7 6 32 21 12 15 9 5 5 12 15 16 7 6 6 20 11 9 13 19
18 21 27 23 17 22 15 13 13 6 5 7 8 10 13 11 6 3 22 9 6 6 7 7 9 8 9 7 8 8 10 8 32 24 17 8 8 6 8 13 10 11 5 5 2 2 7 8 12
19 21 21 24 22 22 14 11 7 6 6 6 7 11 14 15 18 20 17 15 11 4 5 5 9 10 10 11 9 10 12 15 22 26 22 19 11 8 8 9 9 8 6 3 3 7 6 7 10
18 18 26 24 27 24 17 8 5 4 4 6 9 12 16 19 20 20 22 22 18 22 25 11 9 11 12 12 11 11 12 16 19 19 22 20 21 18 10 10 10 8 8 6 5 6 6 5 9
21 27 23 19 22 23 25 21 23 5 4 7 11 14 19 22 22 22 24 26 26 27 29 31 20 14 14 13 13 14 14 14 18 23 20 21 21 22 23 12 11 10 9 9 8 7 7 7 8
16 20 19 24 26 28 27 16 15 5 5 10 15 18 21 24 24 26 27 29 29 31 33 34 35 39 17 15 14 14 16 18 18 18 23 22 22 22 21 12 12 12 11 10 10 10 9 9 8
24 30 29 29 26 26 28 31 8 8 9 13 17 20 24 26 27 27 29 30 31 32 33 34 35 35 17 16 15 15 16 18 20 20 20 21 22 23 22 19 14 14 13 12 12 11 11 11 11
Wind_Direction
147 148 160 160 120 117 93 85 23 54 26 16 46 40 12 306 246 59 111 91 107 111 153 174 187 187 177 174 181 189 179 180 160 157 156 149 141 142 128 143 148 146 146 131 107 97 91 79 86
158 157 135 151 118 94 98 94 98 53 67 41 31 38 37 51 66 86 91 101 86 94 60 189 204 215 202 120 60 196 190 149 169 169 161 146 148 145 124 142 152 139 123 89 76 87 106 120 107
178 169 136 117 109 106 96 81 99 100 116 52 23 25 42 70 70 82 96 90 80 69 58 331 273 228 227 92 87 70 60 172 175 169 164 137 154 145 152 147 151 139 89 92 102 112 121 120 122
163 132 144 106 100 93 91 94 102 109 81 98 51 30 46 68 81 94 99 92 85 69 58 45 39 66 83 88 94 80 186 132 55 174 168 155 169 173 174 166 159 156 135 119 118 127 126 123 124
149 138 131 88 74 83 85 93 105 97 77 51 66 67 40 73 90 95 92 87 79 72 68 57 64 76 79 83 90 83 86 73 177 172 183 182 186 185 180 171 145 141 145 137 120 123 123 123 128
159 144 126 96 90 55 118 72 62 45 87 70 67 80 76 85 98 109 88 87 89 78 74 73 74 81 81 80 87 87 118 80 173 184 184 187 201 184 185 158 146 142 138 133 128 125 125 126 127
173 126 114 100 79 80 145 97 43 91 87 87 81 83 100 106 109 93 84 104 91 82 81 88 93 90 90 89 100 101 91 181 173 186 184 188 194 176 170 147 145 145 141 136 132 129 127 125 123
359 150 100 128 91 80 93 0 263 41 43 88 88 102 107 115 108 103 108 121 95 98 96 94 95 121 149 125 145 149 180 173 176 183 182 167 154 147 141 140 149 149 145 142 138 135 132 129 127
235 168 135 137 89 104 89 63 57 79 101 49 55 110 114 120 116 106 111 94 87 90 107 117 124 138 143 142 149 160 165 176 174 181 175 169 180 147 143 159 154 153 151 151 146 139 138 135 135
153 144 122 110 97 100 93 80 96 88 86 77 83 94 107 113 120 112 110 118 109 110 119 115 119 132 132 133 143 151 161 174 183 179 187 173 179 140 152 158 154 155 162 163 163 152 138 141 138
115 128 118 115 99 90 69 115 64 146 91 102 102 104 115 115 118 116 118 117 117 114 117 107 105 132 131 112 157 154 162 184 198 210 191 177 174 158 148 161 169 174 175 169 166 158 137 125 136
112 108 86 107 96 91 121 118 21 49 59 92 108 112 115 120 119 119 115 119 118 118 110 108 107 104 88 140 147 158 153 184 205 205 209 198 183 162 175 163 176 185 181 189 190 164 162 129 142
118 115 78 84 49 348 167 218 85 58 70 94 110 117 121 125 120 120 113 118 113 108 103 100 94 113 135 172 219 234 220 240 257 211 202 185 189 200 206 198 205 202 203 202 208 176 163 166 149
98 59 46 70 17 80 130 162 139 81 84 93 110 118 126 126 124 118 119 115 110 114 100 94 90 102 128 264 229 228 229 251 221 256 202 206 221 194 221 188 190 199 241 224 196 182 179 172 136
10 41 42 16 102 115 146 157 110 94 94 99 110 119 125 128 130 123 124 123 115 122 105 101 95 98 84 260 219 209 232 239 238 288 244 216 235 211 195 198 199 217 208 194 194 189 187 180 144
29 349 13 48 101 54 77 129 135 112 109 115 115 117 118 124 130 127 126 122 120 126 110 111 117 115 94 117 203 210 219 252 245 286 267 219 218 201 206 196 204 237 212 202 206 205 228 211 215
318 342 23 25 86 80 349 165 91 121 129 123 123 125 123 119 123 126 133 132 131 116 111 109 116 122 116 108 156 202 253 239 252 259 36 191 220 212 211 206 261 233 220 223 226 254 227 215 204
325 289 335 12 42 58 129 94 97 124 138 121 123 126 127 125 125 123 134 138 125 113 109 91 125 121 121 121 252 223 278 242 242 244 319 114 247 212 214 223 265 229 221 232 249 248 240 224 231
277 288 308 350 359 349 323 347 94 109 123 129 118 119 127 132 124 120 133 134 132 127 120 128 129 116 130 152 240 269 279 253 233 251 116 107 280 237 224 219 274 225 218 274 253 244 223 220 253
280 285 290 350 1 339 332 297 39 124 123 129 116 121 125 121 123 124 128 134 135 132 128 132 131 125 134 151 151 272 166 155 239 248 259 334 275 274 228 215 217 155 209 330 268 246 238 239 274
291 289 287 293 333 345 317 323 299 140 112 132 125 123 125 129 128 128 130 137 134 132 135 137 142 137 141 146 147 234 271 254 249 256 260 272 286 242 253 230 230 260 267 64 124 160 194 235 261
295 317 308 304 295 289 307 299 342 156 132 75 105 141 141 136 132 131 134 139 140 136 137 140 146 148 151 161 151 166 269 249 249 247 264 239 171 155 222 234 239 261 269 265 134 140 62 337 225
299 322 316 305 302 298 297 301 313 32 300 257 192 319 155 140 132 142 140 140 144 144 144 145 149 152 154 165 167 162 248 264 257 250 244 248 188 159 176 176 260 280 266 258 278 308 301 306 325
303 302 306 312 309 297 305 300 302 297 333 40 356 343 285 280 225 140 143 146 145 151 156 157 158 164 170 170 176 188 212 240 263 264 266 255 242 191 169 170 172 160 160 169 286 307 305 307 305
312 311 301 299 301 305 308 300 305 354 22 44 48 49 41 35 76 346 288 149 159 162 169 179 181 184 181 196 198 206 272 220 249 265 265 251 260 229 184 179 176 174 174 166 236 291 316 304 309
311 313 309 302 308 316 338 319 343 4 27 20 349 353 351 342 343 339 348 307 308 254 212 212 192 208 203 199 213 239 257 274 269 267 269 267 262 253 214 189 197 193 195 231 257 309 305 309 313
314 309 306 302 294 295 302 19 25 51 1 358 350 338 332 331 333 328 322 327 329 294 293 272 252 215 218 221 223 227 244 262 269 267 271 274 269 274 246 214 208 225 221 255 249 268 292 286 314
298 299 305 300 300 294 290 299 305 242 286 314 328 325 328 328 327 323 319 315 312 308 301 294 275 249 227 227 232 242 245 246 260 268 265 270 274 270 279 235 234 238 248 241 261 253 241 266 296
307 306 304 294 291 290 292 326 4 42 352 319 323 322 321 320 321 320 314 312 308 307 305 296 294 289 229 231 241 248 253 254 254 258 269 266 267 274 269 266 250 250 256 259 247 247 260 279 269
304 293 293 290 292 291 286 283 8 339 331 322 321 321 314 311 313 316 317 312 307 305 306 305 303 304 245 229 240 244 252 254 255 254 256 267 265 268 274 267 260 259 262 263 256 252 254 256 275